FDX6313 LFPG-LFBD

Flight info

Callsign FDX6313
Flight time N/A
Altitude 29000
Route LFPG/27L AGOPA DCT ARKIP DCT ARNAV DCT LMG
Aircraft R722/M-SDFGRWY/S

Departure

Time N/A
Airport Charles de Gaulle International Airport (LFPG)

Arrival

Time 2026-05-03 21:20
Airport Bordeaux–Mérignac Airport (LFBD)
Time Latitude Longitude Altitude Speed Heading
2026-05-03 20:15 48.56753 1.99891 19763 ft 342 kts 180°
2026-05-03 20:15 48.54309 2.00133 19454 ft 349 kts 181°
2026-05-03 20:15 48.51919 2.00252 19627 ft 343 kts 182°
2026-05-03 20:15 48.49570 2.00269 19454 ft 361 kts 182°
2026-05-03 20:16 48.47111 2.00301 19178 ft 346 kts 182°
2026-05-03 20:16 48.44694 2.00318 18974 ft 343 kts 183°
2026-05-03 20:16 48.42303 2.00336 18659 ft 343 kts 182°
2026-05-03 20:16 48.39962 2.00362 18550 ft 340 kts 184°
2026-05-03 20:17 48.37638 2.00214 19312 ft 330 kts 186°
2026-05-03 20:17 48.35345 2.00099 20188 ft 330 kts 183°
2026-05-03 20:17 48.33053 2.00225 21094 ft 328 kts 181°
2026-05-03 20:17 48.30787 2.00369 22015 ft 323 kts 183°
2026-05-03 20:18 48.28555 2.00407 22970 ft 318 kts 185°
2026-05-03 20:18 48.26354 2.00439 23877 ft 311 kts 184°
2026-05-03 20:18 48.24218 2.00511 24713 ft 304 kts 184°
2026-05-03 20:18 48.22129 2.00584 25550 ft 295 kts 184°
2026-05-03 20:19 48.20106 2.00639 26309 ft 289 kts 185°
2026-05-03 20:19 48.18065 2.00687 26679 ft 297 kts 185°
2026-05-03 20:19 48.15971 2.00744 26986 ft 307 kts 184°
2026-05-03 20:19 48.13790 2.00810 27263 ft 318 kts 184°
2026-05-03 20:20 48.11575 2.00874 27547 ft 329 kts 184°
2026-05-03 20:20 48.09272 2.00732 27837 ft 335 kts 194°
2026-05-03 20:20 48.07026 1.99726 28144 ft 342 kts 203°
2026-05-03 20:20 48.04789 1.98384 28446 ft 353 kts 204°
2026-05-03 20:21 48.02442 1.97086 28748 ft 365 kts 200°
2026-05-03 20:21 47.99954 1.96040 28934 ft 380 kts 197°
2026-05-03 20:21 47.97367 1.95016 28947 ft 396 kts 198°
2026-05-03 20:22 47.92070 1.92564 28942 ft 398 kts 199°
2026-05-03 20:22 47.86725 1.90400 28942 ft 398 kts 198°
2026-05-03 20:23 47.81433 1.87958 28938 ft 401 kts 200°
2026-05-03 20:23 47.76116 1.85638 28938 ft 398 kts 198°
2026-05-03 20:24 47.70799 1.83264 28936 ft 399 kts 199°
2026-05-03 20:24 47.65482 1.80921 28932 ft 399 kts 199°
2026-05-03 20:25 47.60158 1.78570 28940 ft 399 kts 199°
2026-05-03 20:25 47.54834 1.76226 28948 ft 399 kts 199°
2026-05-03 20:26 47.49510 1.73887 28955 ft 399 kts 199°
2026-05-03 20:26 47.44187 1.71554 28958 ft 399 kts 199°
2026-05-03 20:27 47.38851 1.69185 28504 ft 401 kts 201°
2026-05-03 20:27 47.36357 1.67359 26947 ft 399 kts 211°
2026-05-03 20:27 47.34103 1.65237 26772 ft 385 kts 213°
2026-05-03 20:27 47.31831 1.63030 26744 ft 387 kts 213°
2026-05-03 20:28 47.29646 1.60731 26486 ft 388 kts 216°
2026-05-03 20:28 47.27501 1.58321 26458 ft 385 kts 217°
2026-05-03 20:28 47.25424 1.55993 27305 ft 376 kts 214°
2026-05-03 20:28 47.23224 1.53972 28380 ft 370 kts 211°
2026-05-03 20:29 47.20993 1.52079 28943 ft 377 kts 212°
2026-05-03 20:29 47.18729 1.49952 28958 ft 394 kts 214°
2026-05-03 20:29 47.16445 1.47670 28961 ft 396 kts 214°
2026-05-03 20:30 47.11800 1.43326 28968 ft 396 kts 212°
2026-05-03 20:30 47.07164 1.38934 28964 ft 395 kts 213°
2026-05-03 20:31 47.02535 1.34583 28967 ft 396 kts 213°
2026-05-03 20:31 46.97898 1.30225 28961 ft 396 kts 213°
2026-05-03 20:32 46.93267 1.25884 28958 ft 396 kts 212°
2026-05-03 20:32 46.88647 1.21562 28958 ft 396 kts 213°
2026-05-03 20:33 46.83998 1.17222 28961 ft 397 kts 212°
2026-05-03 20:33 46.79335 1.12878 28958 ft 397 kts 212°
2026-05-03 20:34 46.74677 1.08547 28963 ft 397 kts 212°
2026-05-03 20:34 46.70014 1.04223 28955 ft 398 kts 212°
2026-05-03 20:35 46.65344 0.99898 28955 ft 398 kts 212°
2026-05-03 20:35 46.60671 0.95580 28955 ft 398 kts 212°
2026-05-03 20:36 46.55998 0.91273 28951 ft 398 kts 212°
2026-05-03 20:36 46.51322 0.86970 28955 ft 398 kts 212°
2026-05-03 20:37 46.46669 0.82697 28952 ft 398 kts 212°
2026-05-03 20:37 46.41970 0.78394 28957 ft 399 kts 212°
2026-05-03 20:38 46.37275 0.74099 28959 ft 399 kts 212°
2026-05-03 20:38 46.32568 0.69804 28961 ft 400 kts 212°
2026-05-03 20:39 46.27860 0.65518 28950 ft 400 kts 212°
2026-05-03 20:39 46.23154 0.61239 28956 ft 400 kts 212°
2026-05-03 20:40 46.18430 0.56957 28946 ft 401 kts 212°
2026-05-03 20:40 46.13739 0.52710 28946 ft 401 kts 211°
2026-05-03 20:41 46.08996 0.48429 28946 ft 402 kts 211°
2026-05-03 20:41 46.06633 0.46268 28694 ft 401 kts 215°
2026-05-03 20:41 46.04462 0.43737 28460 ft 401 kts 214°
2026-05-03 20:41 46.02396 0.41054 28170 ft 405 kts 230°
2026-05-03 20:42 46.00703 0.37854 27766 ft 402 kts 222°
2026-05-03 20:42 45.98506 0.35409 27197 ft 397 kts 212°
2026-05-03 20:42 45.96120 0.33445 26848 ft 395 kts 209°
2026-05-03 20:42 45.93705 0.31560 26471 ft 395 kts 206°
2026-05-03 20:43 45.91234 0.29844 25950 ft 394 kts 206°
2026-05-03 20:43 45.88813 0.28016 25432 ft 393 kts 209°
2026-05-03 20:43 45.86461 0.26037 24931 ft 391 kts 210°
2026-05-03 20:43 45.84092 0.24115 24430 ft 390 kts 207°
2026-05-03 20:44 45.81696 0.22291 23944 ft 389 kts 207°
2026-05-03 20:44 45.79313 0.20447 23437 ft 388 kts 208°
2026-05-03 20:44 45.76964 0.18567 22863 ft 385 kts 208°
2026-05-03 20:44 45.74636 0.16718 22300 ft 382 kts 208°
2026-05-03 20:45 45.72377 0.14960 21763 ft 379 kts 208°
2026-05-03 20:45 45.70067 0.13160 21214 ft 376 kts 208°
2026-05-03 20:45 45.67781 0.11360 20685 ft 374 kts 208°
2026-05-03 20:45 45.65507 0.09574 20146 ft 372 kts 208°
2026-05-03 20:46 45.63254 0.07817 19580 ft 369 kts 209°
2026-05-03 20:46 45.61012 0.06066 18968 ft 360 kts 209°
2026-05-03 20:46 45.58835 0.04366 18354 ft 352 kts 209°
2026-05-03 20:46 45.56719 0.02714 17648 ft 345 kts 209°
2026-05-03 20:47 45.54619 0.01076 16960 ft 341 kts 209°
2026-05-03 20:47 45.52538 -0.00542 16259 ft 338 kts 209°
2026-05-03 20:47 45.50481 -0.02144 15614 ft 336 kts 209°
2026-05-03 20:47 45.48430 -0.03739 14955 ft 334 kts 209°
2026-05-03 20:48 45.46404 -0.05312 14343 ft 327 kts 209°
2026-05-03 20:48 45.44472 -0.06811 13932 ft 303 kts 209°
2026-05-03 20:48 45.42622 -0.08246 13073 ft 297 kts 209°
2026-05-03 20:48 45.41025 -0.09480 13561 ft 241 kts 209°
2026-05-03 20:49 45.39548 -0.10625 12661 ft 250 kts 209°
2026-05-03 20:49 45.38004 -0.11825 12146 ft 250 kts 209°
2026-05-03 20:49 45.36495 -0.12991 11763 ft 246 kts 209°
2026-05-03 20:49 45.34991 -0.14153 11294 ft 246 kts 209°
2026-05-03 20:50 45.33488 -0.15316 10865 ft 245 kts 209°
2026-05-03 20:50 45.31989 -0.16472 10444 ft 243 kts 209°
2026-05-03 20:50 45.30512 -0.17611 9855 ft 241 kts 209°
2026-05-03 20:50 45.29054 -0.18793 9137 ft 239 kts 214°
2026-05-03 20:51 45.27590 -0.19889 8562 ft 236 kts 202°
2026-05-03 20:51 45.26070 -0.20568 8235 ft 224 kts 193°
2026-05-03 20:51 45.24621 -0.21386 7266 ft 235 kts 214°
2026-05-03 20:51 45.23291 -0.22780 6725 ft 236 kts 216°
2026-05-03 20:52 45.22428 -0.23690 6549 ft 232 kts 214°
2026-05-03 20:52 45.21077 -0.24930 6192 ft 231 kts 209°
2026-05-03 20:52 45.19666 -0.25995 5769 ft 230 kts 206°
2026-05-03 20:52 45.18251 -0.27056 5393 ft 230 kts 208°
2026-05-03 20:53 45.16855 -0.28152 5048 ft 229 kts 208°
2026-05-03 20:53 45.15463 -0.29247 4681 ft 229 kts 208°
2026-05-03 20:53 45.14075 -0.30341 4387 ft 228 kts 208°
2026-05-03 20:53 45.12691 -0.31432 4225 ft 228 kts 208°
2026-05-03 20:54 45.11325 -0.32510 4241 ft 227 kts 208°
2026-05-03 20:54 45.08579 -0.34676 4246 ft 226 kts 209°
2026-05-03 20:54 45.07364 -0.36099 4013 ft 235 kts 224°
2026-05-03 20:55 45.06242 -0.37726 4003 ft 233 kts 224°
2026-05-03 20:55 45.05125 -0.39342 4037 ft 231 kts 225°
2026-05-03 20:55 45.04039 -0.41019 4042 ft 230 kts 228°
2026-05-03 20:55 45.03022 -0.42761 3955 ft 233 kts 230°
2026-05-03 20:56 45.01975 -0.44607 3412 ft 243 kts 229°
2026-05-03 20:56 45.00871 -0.46324 3023 ft 232 kts 225°
2026-05-03 20:56 44.99775 -0.47983 2626 ft 225 kts 226°
2026-05-03 20:56 44.98723 -0.49491 2511 ft 208 kts 223°
2026-05-03 20:57 44.97663 -0.50909 2032 ft 210 kts 220°
2026-05-03 20:57 44.96561 -0.52138 1797 ft 200 kts 213°
2026-05-03 20:57 44.95467 -0.53307 1552 ft 191 kts 224°
2026-05-03 20:57 44.94589 -0.54639 1448 ft 186 kts 226°
2026-05-03 20:58 44.93641 -0.56116 1708 ft 197 kts 227°
2026-05-03 20:58 44.92703 -0.57585 2029 ft 204 kts 226°
2026-05-03 20:58 44.91739 -0.59041 2168 ft 204 kts 223°
2026-05-03 20:58 44.90710 -0.60412 2085 ft 205 kts 220°
2026-05-03 20:59 44.89658 -0.61743 1828 ft 196 kts 223°
2026-05-03 20:59 44.88772 -0.63075 1554 ft 173 kts 226°
2026-05-03 20:59 44.87996 -0.64202 1315 ft 148 kts 223°
2026-05-03 20:59 44.87311 -0.65161 1165 ft 134 kts 225°
2026-05-03 21:00 44.86666 -0.66113 967 ft 134 kts 222°
2026-05-03 21:00 44.86223 -0.66721 847 ft 134 kts 221°
2026-05-03 21:00 44.85354 -0.67993 630 ft 133 kts 224°
2026-05-03 21:00 44.84695 -0.68910 469 ft 133 kts 221°
2026-05-03 21:01 44.84047 -0.69864 252 ft 130 kts 224°
2026-05-03 21:01 44.83385 -0.70812 453 ft 142 kts 225°
2026-05-03 21:01 44.82684 -0.71901 1055 ft 167 kts 227°
2026-05-03 21:01 44.81877 -0.73200 1818 ft 176 kts 227°
2026-05-03 21:02 44.81100 -0.74442 2911 ft 169 kts 226°
2026-05-03 21:02 44.80150 -0.75703 3020 ft 202 kts 219°
2026-05-03 21:02 44.79168 -0.77280 2995 ft 237 kts 236°
2026-05-03 21:02 44.78658 -0.79540 3011 ft 247 kts 269°
2026-05-03 21:03 44.79135 -0.81828 3013 ft 247 kts 304°
2026-05-03 21:03 44.80443 -0.83360 3014 ft 249 kts 338°
2026-05-03 21:03 44.82259 -0.83913 3032 ft 276 kts 354°
2026-05-03 21:03 44.84140 -0.84114 3012 ft 268 kts 356°
2026-05-03 21:04 44.86003 -0.84314 3012 ft 267 kts 355°
2026-05-03 21:04 44.87828 -0.84501 3012 ft 268 kts 356°
2026-05-03 21:04 44.89696 -0.84692 3008 ft 268 kts 356°
2026-05-03 21:04 44.91557 -0.84883 3005 ft 268 kts 356°
2026-05-03 21:05 44.93417 -0.85013 3001 ft 268 kts
2026-05-03 21:05 44.95211 -0.84376 3010 ft 267 kts 22°
2026-05-03 21:05 44.96891 -0.83271 3012 ft 267 kts 26°
2026-05-03 21:05 44.98567 -0.82131 3002 ft 267 kts 26°
2026-05-03 21:06 45.00239 -0.81003 3011 ft 267 kts 26°
2026-05-03 21:06 45.01918 -0.79873 2997 ft 266 kts 26°
2026-05-03 21:06 45.03577 -0.78757 3004 ft 267 kts 26°
2026-05-03 21:06 45.05248 -0.77633 3001 ft 267 kts 26°
2026-05-03 21:07 45.06925 -0.76505 2994 ft 267 kts 26°
2026-05-03 21:07 45.08609 -0.75372 2991 ft 267 kts 26°
2026-05-03 21:07 45.10286 -0.74244 2994 ft 267 kts 26°
2026-05-03 21:07 45.11970 -0.73112 2994 ft 268 kts 26°
2026-05-03 21:08 45.13653 -0.71978 2998 ft 268 kts 26°
2026-05-03 21:08 45.15274 -0.70685 2999 ft 267 kts 36°
2026-05-03 21:08 45.16728 -0.69045 2987 ft 267 kts 39°
2026-05-03 21:08 45.18204 -0.67447 2990 ft 267 kts 38°
2026-05-03 21:09 45.19484 -0.65571 2987 ft 265 kts 62°
2026-05-03 21:09 45.19943 -0.63080 3004 ft 264 kts 94°
2026-05-03 21:09 45.19421 -0.60663 3010 ft 252 kts 124°
2026-05-03 21:09 45.18377 -0.58858 2995 ft 222 kts 135°
2026-05-03 21:10 45.17373 -0.57352 2983 ft 199 kts 129°
2026-05-03 21:10 45.16690 -0.55787 2992 ft 175 kts 119°
2026-05-03 21:10 45.16114 -0.54251 2988 ft 180 kts 120°
2026-05-03 21:10 45.15501 -0.52675 2996 ft 182 kts 120°
2026-05-03 21:11 45.14780 -0.51225 2974 ft 179 kts 141°
2026-05-03 21:11 45.13763 -0.50257 3010 ft 178 kts 149°
2026-05-03 21:11 45.12707 -0.49325 2991 ft 179 kts 149°
2026-05-03 21:11 45.11660 -0.48385 3006 ft 178 kts 149°
2026-05-03 21:12 45.10610 -0.47453 3010 ft 178 kts 149°
2026-05-03 21:12 45.09549 -0.46556 3001 ft 178 kts 155°
2026-05-03 21:12 45.08421 -0.45826 3013 ft 178 kts 154°
2026-05-03 21:12 45.07267 -0.45215 3005 ft 178 kts 167°
2026-05-03 21:13 45.06061 -0.44870 3011 ft 176 kts 168°
2026-05-03 21:13 45.04862 -0.44501 3009 ft 177 kts 168°
2026-05-03 21:13 45.03654 -0.44147 3013 ft 177 kts 168°
2026-05-03 21:13 45.02437 -0.43941 2965 ft 179 kts 191°
2026-05-03 21:14 45.01377 -0.44802 3012 ft 178 kts 224°
2026-05-03 21:14 45.00558 -0.46151 3011 ft 181 kts 226°
2026-05-03 21:14 44.99672 -0.47411 3015 ft 180 kts 221°
2026-05-03 21:14 44.98786 -0.48660 2996 ft 181 kts 224°
2026-05-03 21:15 44.97924 -0.49942 2993 ft 180 kts 224°
2026-05-03 21:15 44.97033 -0.51190 2992 ft 181 kts 223°
2026-05-03 21:15 44.96167 -0.52464 3003 ft 180 kts 225°
2026-05-03 21:15 44.95283 -0.53718 2997 ft 180 kts 222°
2026-05-03 21:16 44.94417 -0.54970 3003 ft 180 kts 225°
2026-05-03 21:16 44.93529 -0.56254 2873 ft 176 kts 223°
2026-05-03 21:16 44.92696 -0.57435 2641 ft 168 kts 224°
2026-05-03 21:16 44.91904 -0.58595 2432 ft 167 kts 223°
2026-05-03 21:17 44.91076 -0.59750 2204 ft 164 kts 224°
2026-05-03 21:17 44.90553 -0.60528 2045 ft 162 kts 225°
2026-05-03 21:17 44.89529 -0.61977 1759 ft 146 kts 223°
2026-05-03 21:17 44.88859 -0.62969 1603 ft 137 kts 224°
2026-05-03 21:18 44.88184 -0.63914 1403 ft 136 kts 222°
2026-05-03 21:18 44.87524 -0.64862 1223 ft 135 kts 225°
2026-05-03 21:18 44.86865 -0.65822 1038 ft 134 kts 222°
2026-05-03 21:18 44.86195 -0.66755 846 ft 135 kts 224°
2026-05-03 21:19 44.85546 -0.67721 655 ft 137 kts 224°
2026-05-03 21:19 44.84880 -0.68636 469 ft 136 kts 223°
2026-05-03 21:19 44.84228 -0.69577 366 ft 132 kts 224°
2026-05-03 21:19 44.83611 -0.70481 167 ft 116 kts 223°
2026-05-03 21:20 44.83130 -0.71153 172 ft 74 kts 226°
2026-05-03 21:20 44.82912 -0.71467 171 ft 23 kts 225°
2026-05-03 21:20 44.82850 -0.71467 172 ft 13 kts 119°
2026-05-03 21:20 44.82818 -0.71312 171 ft 17 kts 105°
2026-05-03 21:21 44.82809 -0.71176 173 ft 12 kts 61°
2026-05-03 21:21 44.82874 -0.71074 174 ft 16 kts 46°
2026-05-03 21:21 44.82934 -0.70951 173 ft 15 kts 83°
2026-05-03 21:21 44.82916 -0.70824 173 ft 12 kts 105°
2026-05-03 21:22 44.82894 -0.70717 173 ft 11 kts 107°
2026-05-03 21:22 44.82872 -0.70614 173 ft 11 kts 107°
2026-05-03 21:22 44.82853 -0.70515 173 ft 10 kts 107°
2026-05-03 21:22 44.82826 -0.70392 173 ft 13 kts 107°
2026-05-03 21:23 44.82797 -0.70253 173 ft 16 kts 106°
2026-05-03 21:23 44.82764 -0.70101 173 ft 16 kts 106°
2026-05-03 21:23 44.82734 -0.69957 173 ft 15 kts 106°
2026-05-03 21:23 44.82711 -0.69837 173 ft 10 kts 97°
2026-05-03 21:24 44.82717 -0.69784 173 ft 0 kts 61°
2026-05-03 21:24 44.82722 -0.69774 173 ft 7 kts 49°
2026-05-03 21:24 44.82766 -0.69737 173 ft 6 kts 23°
2026-05-03 21:24 44.82801 -0.69719 173 ft 6 kts 17°
2026-05-03 21:25 44.82838 -0.69703 172 ft 0 kts 17°
2026-05-03 21:25 44.82840 -0.69703 172 ft 0 kts 17°